TimeCST,TemperatureF,Dew PointF,Humidity,Sea Level PressureIn,VisibilityMPH,Wind Direction,Wind SpeedMPH,Gust SpeedMPH,PrecipitationIn,Events,Conditions,WindDirDegrees,DateUTC
12:10 AM,4.8,-0.4,79,30.23,10.0,NNW,5.8,-,N/A,,Clear,340,2013-01-26 06:10:00
12:29 AM,4.5,-0.6,80,30.23,10.0,NNW,8.1,-,N/A,,Clear,340,2013-01-26 06:29:00
12:49 AM,4.1,-0.8,80,30.23,10.0,North,8.1,-,N/A,,Clear,350,2013-01-26 06:49:00
1:10 AM,4.1,-0.9,80,30.24,10.0,NNW,5.8,-,N/A,,Clear,330,2013-01-26 07:10:00
1:30 AM,3.9,-0.9,80,30.25,10.0,NNW,5.8,-,N/A,,Clear,340,2013-01-26 07:30:00
1:50 AM,3.7,-1.3,80,30.25,10.0,NW,5.8,-,N/A,,Clear,320,2013-01-26 07:50:00
2:10 AM,3.6,-1.3,80,30.26,10.0,NNW,6.9,-,N/A,,Clear,330,2013-01-26 08:10:00
2:29 AM,3.2,-1.3,82,30.26,10.0,NNW,5.8,-,N/A,,Clear,340,2013-01-26 08:29:00
2:50 AM,2.8,-1.8,81,30.26,10.0,WNW,4.6,-,N/A,,Clear,300,2013-01-26 08:50:00
3:09 AM,2.3,-2.2,81,30.27,10.0,NW,3.5,-,N/A,,Clear,320,2013-01-26 09:09:00
3:29 AM,2.3,-2.0,82,30.26,10.0,NW,4.6,-,N/A,,Clear,320,2013-01-26 09:29:00
3:49 AM,2.3,-2.0,82,30.26,10.0,NW,5.8,-,N/A,,Clear,320,2013-01-26 09:49:00
4:10 AM,1.8,-2.6,82,30.27,10.0,Calm,Calm,-,N/A,,Clear,0,2013-01-26 10:10:00
4:29 AM,1.9,-2.2,83,30.26,10.0,WNW,4.6,-,N/A,,Clear,290,2013-01-26 10:29:00
4:49 AM,1.6,-2.6,83,30.27,10.0,WNW,5.8,-,N/A,,Clear,300,2013-01-26 10:49:00
5:08 AM,1.2,-2.7,83,30.27,10.0,WNW,4.6,-,N/A,,Clear,300,2013-01-26 11:08:00
5:29 AM,1.4,-2.7,83,30.28,10.0,NW,3.5,-,N/A,,Clear,320,2013-01-26 11:29:00
5:50 AM,1.4,-2.9,82,30.28,10.0,NW,3.5,-,N/A,,Clear,310,2013-01-26 11:50:00
6:10 AM,1.2,-2.6,84,30.28,10.0,West,3.5,-,N/A,,Clear,280,2013-01-26 12:10:00
6:29 AM,1.2,-3.1,82,30.28,10.0,NW,3.5,-,N/A,,Clear,310,2013-01-26 12:29:00
6:49 AM,1.2,-2.6,84,30.29,10.0,Calm,Calm,-,N/A,,Clear,0,2013-01-26 12:49:00
7:10 AM,1.2,-2.7,83,30.29,10.0,Calm,Calm,-,N/A,,Clear,0,2013-01-26 13:10:00
7:30 AM,1.0,-2.7,84,30.29,10.0,Calm,Calm,-,N/A,,Clear,0,2013-01-26 13:30:00
7:50 AM,1.2,-3.1,82,30.30,10.0,Calm,Calm,-,N/A,,Clear,0,2013-01-26 13:50:00
8:10 AM,3.0,-1.7,81,30.31,10.0,Calm,Calm,-,N/A,,Clear,0,2013-01-26 14:10:00
8:30 AM,3.7,-0.8,82,30.31,10.0,Calm,Calm,-,N/A,,Clear,0,2013-01-26 14:30:00
8:49 AM,4.3,-0.0,82,30.31,10.0,Calm,Calm,-,N/A,,Clear,0,2013-01-26 14:49:00
9:10 AM,6.3,0.9,78,30.31,10.0,ESE,3.5,-,N/A,,Clear,120,2013-01-26 15:10:00
9:29 AM,8.2,2.1,76,30.32,10.0,SE,3.5,-,N/A,,Clear,130,2013-01-26 15:29:00
9:50 AM,9.3,3.4,77,30.32,10.0,South,5.8,-,N/A,,Clear,170,2013-01-26 15:50:00
10:09 AM,10.2,3.4,74,30.32,10.0,SSE,5.8,-,N/A,,Clear,150,2013-01-26 16:09:00
10:50 AM,14.5,5.4,67,30.32,10.0,SSE,5.8,-,N/A,,Clear,150,2013-01-26 16:50:00
11:10 AM,16.0,6.1,65,30.31,10.0,SSE,6.9,-,N/A,,Clear,160,2013-01-26 17:10:00
11:29 AM,16.7,5.9,63,30.31,10.0,South,8.1,-,N/A,,Clear,180,2013-01-26 17:29:00
11:50 AM,18.0,6.3,60,30.29,10.0,SSE,8.1,-,N/A,,Clear,150,2013-01-26 17:50:00
12:10 PM,18.7,6.3,58,30.29,10.0,South,9.2,-,N/A,,Clear,170,2013-01-26 18:10:00
12:29 PM,20.1,6.4,55,30.27,10.0,SSE,11.5,-,N/A,,Clear,150,2013-01-26 18:29:00
12:50 PM,20.8,7.2,56,30.28,10.0,South,6.9,-,N/A,,Scattered Clouds,180,2013-01-26 18:50:00
1:09 PM,20.7,7.0,56,30.27,10.0,SSE,9.2,-,N/A,,Clear,160,2013-01-26 19:09:00
1:30 PM,20.7,6.8,55,30.26,10.0,SSE,10.4,-,N/A,,Scattered Clouds,160,2013-01-26 19:30:00
1:50 PM,21.0,7.9,57,30.25,10.0,SSE,10.4,-,N/A,,Overcast,160,2013-01-26 19:50:00
2:09 PM,21.4,8.4,57,30.25,10.0,SSE,11.5,-,N/A,,Overcast,150,2013-01-26 20:09:00
2:30 PM,21.2,8.2,57,30.24,10.0,SE,10.4,-,N/A,,Overcast,140,2013-01-26 20:30:00
2:50 PM,21.2,8.1,57,30.25,10.0,SSE,9.2,-,N/A,,Overcast,150,2013-01-26 20:50:00
3:09 PM,21.2,7.9,57,30.24,10.0,SSE,10.4,-,N/A,,Overcast,150,2013-01-26 21:09:00
3:30 PM,21.2,8.2,57,30.23,10.0,SE,8.1,-,N/A,,Overcast,140,2013-01-26 21:30:00
3:50 PM,21.2,8.1,57,30.23,10.0,SE,11.5,-,N/A,,Overcast,140,2013-01-26 21:50:00
4:10 PM,21.6,8.2,57,30.22,10.0,SSE,12.7,-,N/A,,Overcast,160,2013-01-26 22:10:00
4:30 PM,21.6,8.2,57,30.22,10.0,SSE,12.7,-,N/A,,Overcast,160,2013-01-26 22:30:00
4:49 PM,21.6,8.6,57,30.21,10.0,SSE,10.4,-,N/A,,Overcast,150,2013-01-26 22:49:00
5:10 PM,21.6,8.6,57,30.20,10.0,SSE,11.5,-,N/A,,Overcast,160,2013-01-26 23:10:00
5:30 PM,21.6,8.8,58,30.19,10.0,SSE,15.0,18.4,N/A,,Overcast,160,2013-01-26 23:30:00
5:50 PM,21.7,9.0,58,30.19,10.0,SSE,9.2,18.4,N/A,,Overcast,150,2013-01-26 23:50:00
6:09 PM,21.7,9.3,59,30.19,10.0,SSE,12.7,-,N/A,,Overcast,150,2013-01-27 00:09:00
6:30 PM,21.9,9.5,59,30.21,10.0,SSE,11.5,-,N/A,,Overcast,150,2013-01-27 00:30:00
6:50 PM,22.1,9.9,59,30.19,10.0,SE,12.7,20.7,N/A,,Overcast,140,2013-01-27 00:50:00
7:09 PM,22.1,9.9,59,30.18,10.0,SSE,13.8,-,N/A,,Overcast,150,2013-01-27 01:09:00
7:29 PM,22.6,10.0,59,30.18,10.0,SSE,11.5,-,N/A,,Overcast,150,2013-01-27 01:29:00
7:50 PM,22.8,10.4,59,30.16,10.0,SSE,15.0,20.7,N/A,,Overcast,150,2013-01-27 01:50:00
8:10 PM,22.8,10.6,59,30.15,10.0,SSE,17.3,-,N/A,,Overcast,150,2013-01-27 02:10:00
8:29 PM,23.0,10.8,60,30.16,10.0,SSE,12.7,19.6,N/A,,Overcast,160,2013-01-27 02:29:00
8:50 PM,23.2,11.1,60,30.17,10.0,SSE,12.7,-,N/A,,Mostly Cloudy,160,2013-01-27 02:50:00
9:10 PM,23.5,11.3,60,30.16,10.0,SSE,15.0,-,N/A,,Mostly Cloudy,160,2013-01-27 03:10:00
9:29 PM,23.7,11.3,59,30.16,10.0,SSE,15.0,-,N/A,,Overcast,160,2013-01-27 03:29:00
9:50 PM,23.7,11.5,60,30.16,10.0,SSE,11.5,-,N/A,,Overcast,160,2013-01-27 03:50:00
10:09 PM,23.7,11.8,61,30.16,10.0,SSE,11.5,-,N/A,,Mostly Cloudy,160,2013-01-27 04:09:00
10:29 PM,23.7,11.8,61,30.16,10.0,SSE,15.0,18.4,N/A,,Scattered Clouds,160,2013-01-27 04:29:00
10:50 PM,23.5,11.8,61,30.16,10.0,SSE,11.5,-,N/A,,Clear,160,2013-01-27 04:50:00
11:09 PM,23.9,12.0,61,30.16,10.0,SSE,13.8,18.4,N/A,,Clear,160,2013-01-27 05:09:00
11:30 PM,24.3,12.2,60,30.17,10.0,SSE,11.5,17.3,N/A,,Scattered Clouds,160,2013-01-27 05:30:00
11:50 PM,24.6,12.6,60,30.16,10.0,SSE,15.0,20.7,N/A,,Mostly Cloudy,160,2013-01-27 05:50:00